TimeEST,TemperatureF,Dew PointF,Humidity,Sea Level PressureIn,VisibilityMPH,Wind Direction,Wind SpeedMPH,Gust SpeedMPH,PrecipitationIn,Events,Conditions,WindDirDegrees,DateUTC
12:00 AM,36.0,30.9,82,30.28,-9999.0,North,4.6,-,N/A,,Clear,350,2012-11-16 05:00:00
1:00 AM,37.0,30.9,79,30.27,-9999.0,North,4.6,-,N/A,,Clear,360,2012-11-16 06:00:00
2:00 AM,35.1,30.9,85,30.29,-9999.0,NW,3.5,-,N/A,,Clear,310,2012-11-16 07:00:00
3:00 AM,35.1,30.9,85,30.29,-9999.0,Calm,Calm,-,N/A,,Clear,0,2012-11-16 08:00:00
4:00 AM,34.0,30.0,85,30.29,-9999.0,Calm,Calm,-,N/A,,Clear,0,2012-11-16 09:00:00
5:00 AM,34.0,28.9,82,30.28,-9999.0,Calm,Calm,-,N/A,,Clear,0,2012-11-16 10:00:00
6:00 AM,34.0,28.0,79,30.29,-9999.0,Calm,Calm,-,N/A,,Clear,0,2012-11-16 11:00:00
7:00 AM,34.0,28.9,82,30.30,-9999.0,Calm,Calm,-,N/A,,Clear,0,2012-11-16 12:00:00
8:00 AM,36.0,28.9,76,30.32,-9999.0,Calm,Calm,-,N/A,,Clear,0,2012-11-16 13:00:00
9:00 AM,39.0,28.0,65,30.33,-9999.0,NNW,3.5,-,N/A,,Clear,330,2012-11-16 14:00:00
10:00 AM,42.1,28.0,58,30.33,-9999.0,North,5.8,-,N/A,,Clear,350,2012-11-16 15:00:00
10:36 AM,42.8,28.4,57,30.33,-9999.0,North,4.6,-,N/A,,Partly Cloudy,350,2012-11-16 15:36:00
11:00 AM,43.0,28.0,56,30.32,-9999.0,Variable,4.6,-,N/A,,Clear,0,2012-11-16 16:00:00
12:00 PM,48.0,28.0,46,30.31,-9999.0,Variable,5.8,-,N/A,,Clear,0,2012-11-16 17:00:00
1:00 PM,46.9,27.0,46,30.30,-9999.0,NNW,4.6,-,N/A,,Clear,340,2012-11-16 18:00:00
2:00 PM,46.9,27.0,46,30.31,-9999.0,Calm,Calm,-,N/A,,Mostly Cloudy,0,2012-11-16 19:00:00
3:00 PM,46.0,28.0,50,30.31,-9999.0,Variable,5.8,-,N/A,,Mostly Cloudy,0,2012-11-16 20:00:00
4:00 PM,46.0,26.1,46,30.33,-9999.0,North,3.5,-,N/A,,Clear,10,2012-11-16 21:00:00
5:00 PM,42.1,28.0,58,30.34,-9999.0,Calm,Calm,-,N/A,,Clear,0,2012-11-16 22:00:00
7:00 PM,32.0,28.0,85,30.38,-9999.0,Calm,Calm,-,N/A,,Clear,0,2012-11-17 00:00:00
8:00 PM,28.9,27.0,92,30.39,-9999.0,Calm,Calm,-,N/A,,Clear,0,2012-11-17 01:00:00
9:00 PM,28.0,26.1,92,30.40,-9999.0,Calm,Calm,-,N/A,,Clear,0,2012-11-17 02:00:00
10:00 PM,32.0,25.0,75,30.41,-9999.0,North,3.5,-,N/A,,Clear,350,2012-11-17 03:00:00
11:00 PM,27.0,23.0,85,30.41,-9999.0,Calm,Calm,-,N/A,,Clear,0,2012-11-17 04:00:00